Hourly Data Report for June 11, 2021

OTTAWA INTL A
ONTARIO
Current Station Operator: NAVCAN

45°19'00.000" N
75°40'00.000" W
114.90 m
6106001
71628
YOW

Download Data

Hourly Data (June 2021)
Hourly Data Report for June 11, 2021
TIME
LST
Temp Definition
°C
Dew Point Definition
°C
Rel Hum Definition
%
Precip. Amount Definition
mm

Wind Dir Definition
10's deg

Wind Spd Definition
km/h
Visibility Definition
km
Stn Press Definition
kPa
Hmdx Definition


Wind Chill Definition


Weather Definition


00:00 16.3 7.6 56   6 9 24.1 100.42     Rain
01:00 15.3 8.6 64   2 16 24.1 100.46     Rain
02:00 14.3 9.9 75   3 10 24.1 100.45     Rain
03:00 14.1 9.6 74   6 9 24.1 100.34     LegendNANA
04:00 13.4 10.4 81   0 1 24.1 100.32     Clear
05:00 14.0 10.1 77   6 7 24.1 100.27     LegendNANA
06:00 14.9 9.9 72   5 9 24.1 100.25     LegendNANA
07:00 15.9 10.3 69   5 16 24.1 100.26     Mostly Cloudy
08:00 17.8 8.2 53   10 14 24.1 100.23     LegendNANA
09:00 19.6 8.0 47   8 6 24.1 100.21     LegendNANA
10:00 20.4 8.0 44   13 7 24.1 100.16     Mostly Cloudy
11:00 22.6 7.1 36   2 10 24.1 100.11     LegendNANA
12:00 23.1 6.7 34   5 13 24.1 100.07     LegendNANA
13:00 23.3 6.7 34   36 6 24.1 100.02     Mostly Cloudy
14:00 23.1 7.1 35   9 12 24.1 99.98     LegendNANA
15:00 23.3 7.9 37   15 9 24.1 99.91     LegendNANA
16:00 23.7 8.3 37   8 7 24.1 99.86     Mostly Cloudy
17:00 24.1 8.4 36   36 5 24.1 99.85 25   LegendNANA
18:00 23.5 8.7 38   23 8 24.1 99.82     LegendNANA
19:00 21.5 10.4 49   19 13 24.1 99.78     Mostly Cloudy
20:00 18.6 11.4 63   20 10 24.1 99.78     LegendNANA
21:00 17.0 12.2 73   23 10 24.1 99.86     LegendNANA
22:00 15.1 12.2 83   23 8 24.1 99.92     Clear
23:00 13.7 11.6 87   26 10 24.1 99.92     LegendNANA

Notes on Data Quality.

Legend

  • E = Estimated
  • M = Missing
  • NA = Not Available*
  • [empty] = Indicates an unobserved value
Date modified: